Location: Newark
(45.5000°N, 11.4167°E)
Time: 09:37:27
(UTC+00:00)

A-11 Canister half - Pass Details

Date: 25 August 2019
Orbit: 1514 x 1686 km, 47.2° (Epoch: 21 October)

Event Time Altitude Azimuth Distance (km) Brightness Sun altitude
Rises 16:53:14 0° 238° (WSW) 4,663 12.5 11.7°
Reaches altitude 10° 16:56:14 10° 237° (WSW) 3,694 12.0 11.1°
Maximum altitude 17:05:31 74° 154° (SSE) 1,616 9.3 9.5°
Drops below altitude 10° 17:15:11 10° 72° (ENE) 3,827 10.6 7.8°
Sets 17:18:20 0° 71° (ENE) 4,837 11.1 7.3°
